Location: Kalberh�ni
(46.4610°N, 7.2453°E)
Time: 22:27:28
(UTC+00:00)

USA 229 - Pass Details

Date: 23 October 2021
Orbit: 946 x 1266 km, 63.4° (Epoch: 25 November)

Event Time Altitude Azimuth Distance (km) Brightness Sun altitude
Exits shadow 00:46:56 12° 84° (E) 2,983 6.3 -50.0°
Drops below altitude 10° 00:47:34 10° 87° (E) 3,160 6.4 -49.9°
Sets 00:50:51 0° 97° (E) 4,161 7.1 -49.6°
